sat.trackr.live / text

‹ back to catalog

STARLINK-2585

NORAD 48382 · 2021-038AF

PAYLOAD ACTIVE UNKNOWN

§ Identity

Operator
Country
US
Launch date
2021-05-04
Launch site
AFETR
Launch vehicle
Mass (kg)
RCS (m²)

Purposes: comms

External: N2YO · Heavens-Above · Gunter

§ Orbital elements

Epoch: 2026-05-24T20:20:00.959712Z

Period
94.01 min
Inclination
53.1623°
Eccentricity
0.0001269
Mean motion
15.31707312 rev/d
Perigee alt
469.8 km
Apogee alt
471.6 km
Semi-major
6,848.9 km
B*
7.2839e-5
RAAN
353.5774°
Arg perigee
80.6503°
Mean anomaly
279.4642°
Rev number
27,889

§ Raw data

STARLINK-25851 48382U 21038AF  26144.84723333  .00001896  00000+0  72839-4 0  99952 48382  53.1623 353.5774 0001269  80.6503 279.4642 15.31707312278899

JSON: /api/v1/satellites/48382 · /tle

For live sub-satellite position, see the globe view (requires WebGL).

§ Visibility from observer

Set your observer location to see the next 7 days of passes ≥ 10°. The values pass through the URL so the page stays shareable.

No JS? Fill the form by hand. The geolocation button needs JavaScript.